Time,TemperatureF,DewpointF,PressureIn,WindDirection,WindDirectionDegrees,WindSpeedMPH,WindSpeedGustMPH,Humidity,HourlyPrecipIn,Conditions,Clouds,dailyrainin,SoftwareType,DateUTC
2013-02-17 00:00:00,30.6,20.8,29.75,NW,308,4.7,8.9,67,0.00,,,0.02,WUHU216HW,2013-02-17 05:00:00,
2013-02-17 00:05:00,30.6,20.8,29.75,NNW,338,3.8,9.2,67,0.00,,,0.00,WUHU216HW,2013-02-17 05:05:00,
2013-02-17 00:10:00,30.4,20.6,29.73,NNW,338,9.2,9.2,67,0.00,,,0.00,WUHU216HW,2013-02-17 05:10:00,
2013-02-17 00:15:00,30.4,20.6,29.73,WNW,293,4.0,9.2,67,0.00,,,0.00,WUHU216HW,2013-02-17 05:15:00,
2013-02-17 00:20:00,30.4,20.6,29.72,NW,305,3.3,6.7,67,0.00,,,0.00,WUHU216HW,2013-02-17 05:20:00,
2013-02-17 00:25:00,30.2,20.4,29.72,NNW,338,7.2,8.3,67,0.00,,,0.00,WUHU216HW,2013-02-17 05:25:00,
2013-02-17 00:30:00,30.2,20.4,29.72,NNW,338,6.7,8.3,67,0.00,,,0.00,WUHU216HW,2013-02-17 05:30:00,
2013-02-17 00:35:00,30.1,20.4,29.71,NNW,338,5.3,6.9,67,0.00,,,0.00,WUHU216HW,2013-02-17 05:35:00,
2013-02-17 00:40:00,29.9,20.2,29.71,NW,315,5.9,7.2,67,0.00,,,0.00,WUHU216HW,2013-02-17 05:40:00,
2013-02-17 00:45:00,29.9,20.2,29.71,NNE,12,2.6,7.2,67,0.00,,,0.00,WUHU216HW,2013-02-17 05:45:00,
2013-02-17 00:50:00,29.7,20.0,29.72,North,0,4.0,7.4,67,0.00,,,0.00,WUHU216HW,2013-02-17 05:50:00,
2013-02-17 00:55:00,29.7,20.0,29.73,NNE,13,4.9,7.4,67,0.00,,,0.00,WUHU216HW,2013-02-17 05:55:00,
2013-02-17 01:00:00,29.5,20.1,29.72,North,0,5.4,5.6,67,0.00,,,0.00,WUHU216HW,2013-02-17 06:00:00,
2013-02-17 01:05:00,29.5,20.1,29.73,North,350,3.7,5.6,67,0.00,,,0.00,WUHU216HW,2013-02-17 06:05:00,
2013-02-17 01:10:00,29.3,19.6,29.72,NW,310,4.3,7.6,67,0.00,,,0.00,WUHU216HW,2013-02-17 06:10:00,
2013-02-17 01:15:00,29.2,19.8,29.72,NNE,20,3.3,7.6,67,0.00,,,0.00,WUHU216HW,2013-02-17 06:15:00,
2013-02-17 01:20:00,29.2,19.8,29.71,North,0,3.4,6.7,67,0.00,,,0.00,WUHU216HW,2013-02-17 06:20:00,
2013-02-17 01:25:00,29.2,19.8,29.71,NW,315,4.2,5.4,67,0.00,,,0.00,WUHU216HW,2013-02-17 06:25:00,
2013-02-17 01:30:00,29.0,19.6,29.71,NW,315,7.6,7.6,67,0.00,,,0.00,WUHU216HW,2013-02-17 06:30:00,
2013-02-17 01:35:00,29.0,19.6,29.71,North,0,3.8,7.6,67,0.00,,,0.00,WUHU216HW,2013-02-17 06:35:00,
2013-02-17 01:40:00,28.8,19.1,29.70,NNW,338,4.4,9.2,67,0.00,,,0.00,WUHU216HW,2013-02-17 06:40:00,
2013-02-17 01:45:00,28.8,19.1,29.69,NNW,338,6.0,9.2,67,0.00,,,0.00,WUHU216HW,2013-02-17 06:45:00,
2013-02-17 01:50:00,28.6,18.9,29.68,NNE,23,6.9,6.9,67,0.00,,,0.00,WUHU216HW,2013-02-17 06:50:00,
2013-02-17 01:55:00,28.4,19.1,29.68,NW,315,10.5,10.5,67,0.00,,,0.00,WUHU216HW,2013-02-17 06:55:00,
2013-02-17 02:00:00,28.3,18.6,29.68,NW,315,8.5,10.5,67,0.00,,,0.00,WUHU216HW,2013-02-17 07:00:00,
2013-02-17 02:05:00,28.1,18.4,29.68,North,8,3.3,11.2,67,0.00,,,0.00,WUHU216HW,2013-02-17 07:05:00,
2013-02-17 02:10:00,27.9,18.2,29.68,NNW,338,5.8,11.2,67,0.00,,,0.00,WUHU216HW,2013-02-17 07:10:00,
2013-02-17 02:15:00,27.9,18.2,29.68,NNE,23,5.4,7.6,67,0.00,,,0.00,WUHU216HW,2013-02-17 07:15:00,
2013-02-17 02:20:00,27.9,18.6,29.68,NNW,338,5.4,7.6,67,0.00,,,0.00,WUHU216HW,2013-02-17 07:20:00,
2013-02-17 02:25:00,27.9,18.6,29.68,NNW,338,5.8,8.1,67,0.00,,,0.00,WUHU216HW,2013-02-17 07:25:00,
2013-02-17 02:30:00,27.7,18.4,29.68,North,0,4.7,8.1,67,0.00,,,0.00,WUHU216HW,2013-02-17 07:30:00,
2013-02-17 02:35:00,27.7,18.1,29.68,NNW,332,3.6,5.4,67,0.00,,,0.00,WUHU216HW,2013-02-17 07:35:00,
2013-02-17 02:40:00,27.7,18.1,29.68,NNW,328,3.8,6.3,67,0.00,,,0.00,WUHU216HW,2013-02-17 07:40:00,
2013-02-17 02:45:00,27.7,17.7,29.67,NW,323,6.7,8.9,66,0.00,,,0.00,WUHU216HW,2013-02-17 07:45:00,
2013-02-17 02:50:00,27.7,17.4,29.67,NNW,328,4.1,8.9,65,0.00,,,0.00,WUHU216HW,2013-02-17 07:50:00,
2013-02-17 02:55:00,27.7,17.4,29.67,NNW,338,7.5,8.1,65,0.00,,,0.00,WUHU216HW,2013-02-17 07:55:00,
2013-02-17 03:00:00,27.5,16.8,29.66,NNW,338,4.0,8.1,64,0.00,,,0.00,WUHU216HW,2013-02-17 08:00:00,
2013-02-17 03:05:00,27.5,16.5,29.65,NW,311,6.2,10.1,63,0.00,,,0.00,WUHU216HW,2013-02-17 08:05:00,
2013-02-17 03:10:00,27.4,15.7,29.64,NNW,338,6.3,10.1,61,0.00,,,0.00,WUHU216HW,2013-02-17 08:10:00,
2013-02-17 03:15:00,27.4,16.0,29.64,North,0,6.9,9.8,62,0.00,,,0.00,WUHU216HW,2013-02-17 08:15:00,
2013-02-17 03:20:00,27.2,15.5,29.63,WSW,248,4.5,9.8,61,0.00,,,0.00,WUHU216HW,2013-02-17 08:20:00,
2013-02-17 03:25:00,27.2,15.1,29.63,NW,312,5.5,6.9,60,0.00,,,0.00,WUHU216HW,2013-02-17 08:25:00,
2013-02-17 03:30:00,27.0,14.9,29.63,NNW,339,8.1,8.5,60,0.00,,,0.00,WUHU216HW,2013-02-17 08:30:00,
2013-02-17 03:35:00,27.0,15.3,29.64,NW,314,5.3,11.2,61,0.00,,,0.00,WUHU216HW,2013-02-17 08:35:00,
2013-02-17 03:40:00,26.6,14.9,29.64,WNW,298,5.7,18.6,61,0.00,,,0.00,WUHU216HW,2013-02-17 08:40:00,
2013-02-17 03:45:00,26.5,15.2,29.63,NW,311,5.2,18.6,62,0.00,,,0.00,WUHU216HW,2013-02-17 08:45:00,
2013-02-17 03:50:00,26.3,15.0,29.63,NNW,338,9.6,9.6,62,0.00,,,0.00,WUHU216HW,2013-02-17 08:50:00,
2013-02-17 03:55:00,26.1,15.5,29.63,North,5,10.1,12.3,64,0.00,,,0.00,WUHU216HW,2013-02-17 08:55:00,
2013-02-17 04:00:00,25.9,15.7,29.63,NW,315,7.4,15.7,65,0.00,,,0.00,WUHU216HW,2013-02-17 09:00:00,
2013-02-17 04:05:00,25.7,15.8,29.63,NNW,333,6.5,15.7,66,0.00,,,0.00,WUHU216HW,2013-02-17 09:05:00,
2013-02-17 04:10:00,25.6,16.0,29.63,WNW,302,6.3,10.5,67,0.00,,,0.00,WUHU216HW,2013-02-17 09:10:00,
2013-02-17 04:15:00,25.4,15.9,29.62,NW,323,10.9,14.3,67,0.00,,,0.00,WUHU216HW,2013-02-17 09:15:00,
2013-02-17 04:20:00,25.2,16.3,29.61,North,0,12.1,14.3,68,0.00,,,0.00,WUHU216HW,2013-02-17 09:20:00,
2013-02-17 04:25:00,24.8,15.9,29.61,NNW,347,6.3,12.1,68,0.00,,,0.00,WUHU216HW,2013-02-17 09:25:00,
2013-02-17 04:30:00,24.8,15.9,29.62,NNW,338,4.5,9.6,68,0.00,,,0.00,WUHU216HW,2013-02-17 09:30:00,
2013-02-17 04:35:00,24.8,15.9,29.61,NW,315,3.4,5.8,68,0.00,,,0.00,WUHU216HW,2013-02-17 09:35:00,
2013-02-17 04:40:00,24.8,15.9,29.61,NW,315,4.3,5.8,68,0.00,,,0.00,WUHU216HW,2013-02-17 09:40:00,
2013-02-17 04:45:00,24.8,15.9,29.61,North,358,6.4,10.5,68,0.00,,,0.00,WUHU216HW,2013-02-17 09:45:00,
2013-02-17 04:50:00,24.8,15.9,29.61,North,0,3.8,10.5,68,0.00,,,0.00,WUHU216HW,2013-02-17 09:50:00,
2013-02-17 04:55:00,24.8,15.6,29.61,NNW,338,3.4,9.8,67,0.00,,,0.00,WUHU216HW,2013-02-17 09:55:00,
2013-02-17 05:00:00,24.8,15.3,29.61,NW,315,9.6,12.8,67,0.00,,,0.00,WUHU216HW,2013-02-17 10:00:00,
2013-02-17 05:05:00,24.7,15.5,29.60,WNW,293,9.8,18.3,67,0.00,,,0.00,WUHU216HW,2013-02-17 10:05:00,
2013-02-17 05:10:00,24.3,15.8,29.60,NW,315,9.6,18.3,69,0.00,,,0.00,WUHU216HW,2013-02-17 10:10:00,
2013-02-17 05:15:00,24.1,16.2,29.60,NNW,337,11.1,15.0,71,0.00,,,0.00,WUHU216HW,2013-02-17 10:15:00,
2013-02-17 05:20:00,23.9,16.0,29.60,NNW,338,5.3,15.0,71,0.00,,,0.00,WUHU216HW,2013-02-17 10:20:00,
2013-02-17 05:25:00,23.8,16.5,29.59,NW,325,11.6,12.8,73,0.00,,,0.00,WUHU216HW,2013-02-17 10:25:00,
2013-02-17 05:30:00,23.6,16.3,29.58,NNW,338,4.5,12.8,73,0.00,,,0.00,WUHU216HW,2013-02-17 10:30:00,
2013-02-17 05:35:00,23.4,16.4,29.58,NNW,338,10.5,10.5,74,0.00,,,0.00,WUHU216HW,2013-02-17 10:35:00,
2013-02-17 05:40:00,23.2,16.2,29.58,NW,315,8.5,10.5,74,0.00,,,0.00,WUHU216HW,2013-02-17 10:40:00,
2013-02-17 05:45:00,22.9,16.5,29.58,NW,322,6.1,12.1,76,0.00,,,0.00,WUHU216HW,2013-02-17 10:45:00,
2013-02-17 05:50:00,22.5,16.4,29.58,NNW,327,5.2,12.5,77,0.00,,,0.00,WUHU216HW,2013-02-17 10:50:00,
2013-02-17 05:55:00,22.1,16.5,29.58,WNW,293,8.3,12.5,79,0.00,,,0.00,WUHU216HW,2013-02-17 10:55:00,
2013-02-17 06:00:00,22.0,16.7,29.58,NNW,337,6.9,11.2,80,0.00,,,0.00,WUHU216HW,2013-02-17 11:00:00,
2013-02-17 06:05:00,22.0,16.7,29.58,NNW,334,4.8,14.3,80,0.00,,,0.00,WUHU216HW,2013-02-17 11:05:00,
2013-02-17 06:10:00,21.8,16.8,29.57,NW,322,6.2,14.3,81,0.00,,,0.00,WUHU216HW,2013-02-17 11:10:00,
2013-02-17 06:15:00,21.6,16.6,29.56,NW,324,11.3,14.3,81,0.00,,,0.00,WUHU216HW,2013-02-17 11:15:00,
2013-02-17 06:20:00,21.6,16.9,29.56,NW,315,2.5,14.3,82,0.00,,,0.00,WUHU216HW,2013-02-17 11:20:00,
2013-02-17 06:25:00,21.6,16.6,29.55,NW,325,6.3,7.2,81,0.00,,,0.00,WUHU216HW,2013-02-17 11:25:00,
2013-02-17 06:30:00,21.4,16.4,29.54,NNW,338,8.5,11.4,81,0.00,,,0.00,WUHU216HW,2013-02-17 11:30:00,
2013-02-17 06:35:00,21.4,16.4,29.54,WNW,293,7.7,11.4,81,0.00,,,0.00,WUHU216HW,2013-02-17 11:35:00,
2013-02-17 06:40:00,21.2,16.2,29.53,NW,315,9.8,11.6,81,0.00,,,0.00,WUHU216HW,2013-02-17 11:40:00,
2013-02-17 06:45:00,21.2,16.2,29.53,NW,325,6.2,11.6,81,0.00,,,0.00,WUHU216HW,2013-02-17 11:45:00,
2013-02-17 06:50:00,21.1,16.1,29.54,NW,305,8.7,9.8,81,0.00,,,0.00,WUHU216HW,2013-02-17 11:50:00,
2013-02-17 06:55:00,21.1,16.4,29.54,West,270,8.3,9.8,82,0.00,,,0.00,WUHU216HW,2013-02-17 11:55:00,
2013-02-17 07:00:00,20.9,15.9,29.53,NW,315,7.6,10.5,81,0.00,,,0.00,WUHU216HW,2013-02-17 12:00:00,
2013-02-17 07:05:00,20.7,15.7,29.53,WNW,293,10.8,13.0,81,0.00,,,0.00,WUHU216HW,2013-02-17 12:05:00,
2013-02-17 07:10:00,20.5,15.5,29.53,NW,305,9.3,13.2,81,0.00,,,0.00,WUHU216HW,2013-02-17 12:10:00,
2013-02-17 07:15:00,20.5,15.8,29.52,NW,315,11.4,13.2,82,0.00,,,0.00,WUHU216HW,2013-02-17 12:15:00,
2013-02-17 07:20:00,20.3,15.6,29.53,NW,315,9.6,11.6,82,0.00,,,0.00,WUHU216HW,2013-02-17 12:20:00,
2013-02-17 07:25:00,20.3,15.6,29.52,NNW,331,10.5,13.4,82,0.00,,,0.00,WUHU216HW,2013-02-17 12:25:00,
2013-02-17 07:30:00,20.2,15.2,29.53,NNW,338,9.6,13.4,81,0.00,,,0.00,WUHU216HW,2013-02-17 12:30:00,
2013-02-17 07:35:00,20.2,15.2,29.52,NW,324,7.5,11.2,81,0.00,,,0.00,WUHU216HW,2013-02-17 12:35:00,
2013-02-17 07:40:00,20.2,15.2,29.52,NW,315,9.4,11.2,81,0.00,,,0.00,WUHU216HW,2013-02-17 12:40:00,
2013-02-17 07:45:00,20.2,15.2,29.52,WNW,293,11.9,11.9,81,0.00,,,0.00,WUHU216HW,2013-02-17 12:45:00,
2013-02-17 07:50:00,20.0,15.0,29.52,NW,325,8.1,11.9,81,0.00,,,0.00,WUHU216HW,2013-02-17 12:50:00,
2013-02-17 07:55:00,20.0,15.0,29.52,NNW,338,5.6,14.5,81,0.00,,,0.00,WUHU216HW,2013-02-17 12:55:00,
2013-02-17 08:00:00,19.8,15.1,29.51,WNW,293,8.9,14.5,82,0.00,,,0.00,WUHU216HW,2013-02-17 13:00:00,
2013-02-17 08:05:00,19.8,15.1,29.50,NW,315,12.8,13.4,82,0.00,,,0.00,WUHU216HW,2013-02-17 13:05:00,
2013-02-17 08:10:00,19.8,15.1,29.50,WNW,293,8.5,15.0,82,0.00,,,0.00,WUHU216HW,2013-02-17 13:10:00,
2013-02-17 08:15:00,19.8,15.1,29.50,NW,315,7.6,15.0,82,0.00,,,0.00,WUHU216HW,2013-02-17 13:15:00,
2013-02-17 08:20:00,19.8,15.1,29.50,WNW,293,8.5,14.1,82,0.00,,,0.00,WUHU216HW,2013-02-17 13:20:00,
2013-02-17 08:25:00,19.8,15.1,29.49,NW,307,4.8,11.9,82,0.00,,,0.00,WUHU216HW,2013-02-17 13:25:00,
2013-02-17 08:30:00,19.8,15.1,29.49,WNW,293,9.4,13.4,82,0.00,,,0.00,WUHU216HW,2013-02-17 13:30:00,
2013-02-17 08:35:00,19.8,15.4,29.49,NW,309,9.9,13.4,83,0.00,,,0.00,WUHU216HW,2013-02-17 13:35:00,
2013-02-17 08:40:00,19.8,15.4,29.48,NNW,338,10.1,18.8,83,0.00,,,0.00,WUHU216HW,2013-02-17 13:40:00,
2013-02-17 08:45:00,19.8,15.1,29.48,WNW,296,12.0,18.8,82,0.00,,,0.00,WUHU216HW,2013-02-17 13:45:00,
2013-02-17 08:50:00,19.8,15.4,29.48,North,0,8.9,17.2,83,0.00,,,0.00,WUHU216HW,2013-02-17 13:50:00,
2013-02-17 08:55:00,19.8,15.4,29.47,NW,322,7.3,12.8,83,0.00,,,0.00,WUHU216HW,2013-02-17 13:55:00,
2013-02-17 09:00:00,19.8,15.4,29.47,NNW,338,14.3,14.3,83,0.00,,,0.00,WUHU216HW,2013-02-17 14:00:00,
2013-02-17 09:05:00,19.8,15.4,29.47,WSW,248,10.5,14.3,83,0.00,,,0.00,WUHU216HW,2013-02-17 14:05:00,
2013-02-17 09:10:00,19.8,15.4,29.46,NW,315,16.3,16.3,83,0.00,,,0.00,WUHU216HW,2013-02-17 14:10:00,
2013-02-17 09:15:00,19.8,15.4,29.46,WNW,293,6.9,16.3,83,0.00,,,0.00,WUHU216HW,2013-02-17 14:15:00,
2013-02-17 09:20:00,19.8,15.4,29.45,North,0,11.9,16.3,83,0.00,,,0.00,WUHU216HW,2013-02-17 14:20:00,
2013-02-17 09:37:00,19.8,15.4,29.45,North,0,11.9,11.9,83,0.00,,,0.00,WUHU216HW,2013-02-17 14:37:00,
2013-02-17 09:42:00,19.8,15.4,29.45,NW,313,9.9,12.1,83,0.00,,,0.00,WUHU216HW,2013-02-17 14:42:00,
2013-02-17 09:47:00,19.8,15.4,29.45,NW,309,7.0,17.9,83,0.00,,,0.00,WUHU216HW,2013-02-17 14:47:00,
2013-02-17 09:52:00,19.8,15.4,29.45,NW,325,8.1,17.9,83,0.00,,,0.00,WUHU216HW,2013-02-17 14:52:00,
2013-02-17 09:57:00,19.8,15.4,29.44,NW,325,7.3,16.6,83,0.00,,,0.00,WUHU216HW,2013-02-17 14:57:00,
2013-02-17 10:02:00,20.0,15.6,29.44,NNW,338,13.9,15.0,83,0.00,,,0.00,WUHU216HW,2013-02-17 15:02:00,
2013-02-17 10:07:00,19.8,15.4,29.44,NW,306,10.6,15.7,83,0.00,,,0.00,WUHU216HW,2013-02-17 15:07:00,
2013-02-17 10:12:00,19.8,15.4,29.44,NW,319,7.6,15.7,83,0.00,,,0.00,WUHU216HW,2013-02-17 15:12:00,
2013-02-17 10:17:00,20.0,15.6,29.44,NW,315,11.9,17.9,83,0.00,,,0.00,WUHU216HW,2013-02-17 15:17:00,
2013-02-17 10:22:00,20.0,15.6,29.43,NNW,338,9.4,17.9,83,0.00,,,0.00,WUHU216HW,2013-02-17 15:22:00,
2013-02-17 10:27:00,20.2,15.5,29.43,NNW,338,10.5,18.1,82,0.00,,,0.00,WUHU216HW,2013-02-17 15:27:00,
2013-02-17 10:32:00,20.2,15.8,29.43,NNW,338,9.8,18.1,83,0.00,,,0.00,WUHU216HW,2013-02-17 15:32:00,
2013-02-17 10:37:00,20.2,15.8,29.43,NW,326,10.2,17.0,83,0.00,,,0.00,WUHU216HW,2013-02-17 15:37:00,
2013-02-17 10:42:00,20.3,15.6,29.43,WNW,299,8.4,17.2,82,0.00,,,0.00,WUHU216HW,2013-02-17 15:42:00,
2013-02-17 10:47:00,20.3,15.6,29.42,NNW,340,5.3,17.9,82,0.00,,,0.00,WUHU216HW,2013-02-17 15:47:00,
2013-02-17 10:52:00,20.5,15.8,29.43,NNW,338,11.4,17.9,82,0.00,,,0.00,WUHU216HW,2013-02-17 15:52:00,
2013-02-17 10:57:00,20.5,16.0,29.43,NW,318,10.7,15.4,83,0.00,,,0.00,WUHU216HW,2013-02-17 15:57:00,
2013-02-17 11:02:00,20.3,15.8,29.43,WNW,301,8.2,15.4,83,0.00,,,0.00,WUHU216HW,2013-02-17 16:02:00,
2013-02-17 11:07:00,20.3,15.8,29.43,NW,315,8.9,13.6,83,0.00,,,0.00,WUHU216HW,2013-02-17 16:07:00,
2013-02-17 11:12:00,20.5,16.0,29.43,NNW,338,17.2,17.2,83,0.00,,,0.00,WUHU216HW,2013-02-17 16:12:00,
2013-02-17 11:17:00,20.5,16.0,29.43,NW,324,6.4,17.2,83,0.00,,,0.00,WUHU216HW,2013-02-17 16:17:00,
2013-02-17 11:22:00,20.5,16.0,29.43,NW,321,6.3,17.2,83,0.00,,,0.00,WUHU216HW,2013-02-17 16:22:00,
2013-02-17 11:27:00,20.5,16.0,29.43,North,0,6.5,14.3,83,0.00,,,0.00,WUHU216HW,2013-02-17 16:27:00,
2013-02-17 11:32:00,20.7,16.0,29.43,NW,314,7.1,11.4,82,0.00,,,0.00,WUHU216HW,2013-02-17 16:32:00,
2013-02-17 11:37:00,20.9,15.9,29.43,NW,315,12.8,12.8,81,0.00,,,0.00,WUHU216HW,2013-02-17 16:37:00,
2013-02-17 11:42:00,20.7,15.7,29.43,West,275,4.8,15.7,81,0.00,,,0.00,WUHU216HW,2013-02-17 16:42:00,
2013-02-17 11:47:00,20.9,15.9,29.43,NW,315,9.8,15.7,81,0.00,,,0.00,WUHU216HW,2013-02-17 16:47:00,
2013-02-17 11:52:00,21.1,16.1,29.43,WNW,293,5.5,9.8,81,0.00,,,0.00,WUHU216HW,2013-02-17 16:52:00,
2013-02-17 11:57:00,21.2,15.9,29.43,NNW,338,10.3,10.3,80,0.00,,,0.00,WUHU216HW,2013-02-17 16:57:00,
2013-02-17 12:02:00,21.2,15.9,29.43,WNW,302,7.0,10.3,80,0.00,,,0.00,WUHU216HW,2013-02-17 17:02:00,
2013-02-17 12:07:00,21.2,15.9,29.43,NNW,338,12.1,12.1,80,0.00,,,0.00,WUHU216HW,2013-02-17 17:07:00,
2013-02-17 12:12:00,21.1,16.1,29.43,NW,315,5.8,12.1,81,0.00,,,0.00,WUHU216HW,2013-02-17 17:12:00,
2013-02-17 12:17:00,21.2,16.2,29.43,North,0,4.7,11.9,81,0.00,,,0.00,WUHU216HW,2013-02-17 17:17:00,
2013-02-17 12:22:00,21.2,15.9,29.43,WNW,293,6.9,11.6,80,0.00,,,0.00,WUHU216HW,2013-02-17 17:22:00,
2013-02-17 12:27:00,21.2,15.7,29.43,NNW,338,6.9,12.1,79,0.00,,,0.00,WUHU216HW,2013-02-17 17:27:00,
2013-02-17 12:32:00,21.2,15.7,29.43,WNW,293,7.4,12.1,79,0.00,,,0.00,WUHU216HW,2013-02-17 17:32:00,
2013-02-17 12:37:00,21.2,15.7,29.43,NNW,340,10.9,14.3,79,0.00,,,0.00,WUHU216HW,2013-02-17 17:37:00,
2013-02-17 12:42:00,21.2,15.1,29.43,WNW,293,5.4,14.3,77,0.00,,,0.00,WUHU216HW,2013-02-17 17:42:00,
2013-02-17 12:47:00,21.2,14.8,29.43,WNW,293,16.1,16.1,76,0.00,,,0.00,WUHU216HW,2013-02-17 17:47:00,
2013-02-17 12:52:00,21.1,14.7,29.43,NW,321,12.1,19.7,76,0.00,,,0.00,WUHU216HW,2013-02-17 17:52:00,
2013-02-17 12:57:00,21.2,14.3,29.43,WNW,284,12.2,19.7,74,0.00,,,0.00,WUHU216HW,2013-02-17 17:57:00,
2013-02-17 13:02:00,21.2,14.3,29.43,WNW,297,10.8,16.8,74,0.00,,,0.00,WUHU216HW,2013-02-17 18:02:00,
2013-02-17 13:07:00,21.4,13.6,29.44,WNW,293,15.7,20.8,71,0.00,,,0.00,WUHU216HW,2013-02-17 18:07:00,
2013-02-17 13:12:00,21.6,13.5,29.43,WNW,303,12.2,20.8,70,0.00,,,0.00,WUHU216HW,2013-02-17 18:12:00,
2013-02-17 13:17:00,22.0,14.2,29.43,WNW,299,11.7,19.9,71,0.00,,,0.00,WUHU216HW,2013-02-17 18:17:00,
2013-02-17 13:22:00,22.0,12.9,29.43,WNW,293,17.2,18.8,67,0.00,,,0.00,WUHU216HW,2013-02-17 18:22:00,
2013-02-17 13:27:00,22.1,13.0,29.43,NW,315,7.6,17.2,67,0.00,,,0.00,WUHU216HW,2013-02-17 18:27:00,
2013-02-17 13:32:00,22.5,12.8,29.44,WNW,293,9.1,13.9,66,0.00,,,0.00,WUHU216HW,2013-02-17 18:32:00,
2013-02-17 13:37:00,22.7,12.3,29.43,NW,315,18.1,19.0,64,0.00,,,0.00,WUHU216HW,2013-02-17 18:37:00,
2013-02-17 13:42:00,22.9,11.8,29.43,WNW,290,4.4,19.0,62,0.00,,,0.00,WUHU216HW,2013-02-17 18:42:00,
2013-02-17 13:47:00,23.0,12.2,29.43,NW,319,6.4,18.1,63,0.00,,,0.00,WUHU216HW,2013-02-17 18:47:00,
2013-02-17 13:52:00,23.2,11.0,29.44,NW,315,15.0,15.0,59,0.00,,,0.00,WUHU216HW,2013-02-17 18:52:00,
2013-02-17 13:57:00,23.4,10.8,29.44,North,0,18.6,18.6,58,0.00,,,0.00,WUHU216HW,2013-02-17 18:57:00,
2013-02-17 14:02:00,23.4,10.8,29.44,West,274,11.7,18.6,58,0.00,,,0.00,WUHU216HW,2013-02-17 19:02:00,
2013-02-17 14:07:00,23.4,10.0,29.44,NW,315,14.3,19.2,56,0.00,,,0.00,WUHU216HW,2013-02-17 19:07:00,
2013-02-17 14:12:00,23.4,10.0,29.44,NW,315,15.9,19.2,56,0.00,,,0.00,WUHU216HW,2013-02-17 19:12:00,
2013-02-17 14:17:00,23.4,9.6,29.44,NW,315,24.6,28.0,55,0.00,,,0.00,WUHU216HW,2013-02-17 19:17:00,
2013-02-17 14:22:00,23.4,10.4,29.44,WNW,302,12.7,28.0,57,0.00,,,0.00,WUHU216HW,2013-02-17 19:22:00,
2013-02-17 14:27:00,23.4,9.6,29.45,WNW,293,12.3,25.9,55,0.00,,,0.00,WUHU216HW,2013-02-17 19:27:00,
2013-02-17 14:32:00,23.4,8.4,29.45,NNW,338,15.7,25.9,52,0.00,,,0.00,WUHU216HW,2013-02-17 19:32:00,
2013-02-17 14:37:00,23.6,8.6,29.45,NW,315,15.0,22.1,52,0.00,,,0.00,WUHU216HW,2013-02-17 19:37:00,
2013-02-17 14:42:00,23.9,8.5,29.45,NW,317,8.3,20.8,51,0.00,,,0.00,WUHU216HW,2013-02-17 19:42:00,
2013-02-17 14:47:00,23.9,8.5,29.45,NNW,338,10.7,17.9,51,0.00,,,0.00,WUHU216HW,2013-02-17 19:47:00,
2013-02-17 14:52:00,23.9,8.5,29.45,NW,315,22.6,22.6,51,0.00,,,0.00,WUHU216HW,2013-02-17 19:52:00,
2013-02-17 14:57:00,23.6,8.2,29.45,NW,315,15.0,22.6,51,0.00,,,0.00,WUHU216HW,2013-02-17 19:57:00,
2013-02-17 15:02:00,23.4,8.0,29.46,West,270,16.6,24.2,51,0.00,,,0.00,WUHU216HW,2013-02-17 20:02:00,
2013-02-17 15:07:00,23.4,7.6,29.46,NW,315,14.1,24.2,50,0.00,,,0.00,WUHU216HW,2013-02-17 20:07:00,
2013-02-17 15:12:00,23.2,7.4,29.47,WSW,248,12.8,17.9,50,0.00,,,0.00,WUHU216HW,2013-02-17 20:12:00,
2013-02-17 15:17:00,23.2,7.4,29.47,WNW,295,13.2,17.4,50,0.00,,,0.00,WUHU216HW,2013-02-17 20:17:00,
2013-02-17 15:22:00,23.0,6.8,29.47,WNW,293,12.1,17.7,49,0.00,,,0.00,WUHU216HW,2013-02-17 20:22:00,
2013-02-17 15:27:00,23.0,7.6,29.47,West,270,13.2,17.7,51,0.00,,,0.00,WUHU216HW,2013-02-17 20:27:00,
2013-02-17 15:32:00,22.9,6.7,29.47,WNW,296,10.8,21.3,49,0.00,,,0.00,WUHU216HW,2013-02-17 20:32:00,
2013-02-17 15:37:00,22.9,7.1,29.48,WNW,293,11.4,21.3,50,0.00,,,0.00,WUHU216HW,2013-02-17 20:37:00,
2013-02-17 15:42:00,22.7,6.5,29.48,WNW,293,14.9,16.3,49,0.00,,,0.00,WUHU216HW,2013-02-17 20:42:00,
2013-02-17 15:47:00,22.7,6.9,29.48,North,0,6.0,16.3,50,0.00,,,0.00,WUHU216HW,2013-02-17 20:47:00,
2013-02-17 15:52:00,22.7,6.5,29.49,WSW,248,12.1,23.0,49,0.00,,,0.00,WUHU216HW,2013-02-17 20:52:00,
2013-02-17 15:57:00,22.7,6.1,29.49,NW,308,15.5,24.4,49,0.00,,,0.00,WUHU216HW,2013-02-17 20:57:00,
2013-02-17 16:02:00,22.7,6.5,29.49,West,270,13.2,24.4,49,0.00,,,0.00,WUHU216HW,2013-02-17 21:02:00,
2013-02-17 16:07:00,22.5,6.3,29.49,NW,315,19.9,19.9,49,0.00,,,0.00,WUHU216HW,2013-02-17 21:07:00,
2013-02-17 16:12:00,22.5,5.9,29.50,WNW,293,13.4,19.9,49,0.00,,,0.00,WUHU216HW,2013-02-17 21:12:00,
2013-02-17 16:17:00,22.5,5.9,29.50,NNW,338,13.0,19.9,49,0.00,,,0.00,WUHU216HW,2013-02-17 21:17:00,
2013-02-17 16:22:00,22.5,5.9,29.50,West,270,7.8,20.1,49,0.00,,,0.00,WUHU216HW,2013-02-17 21:22:00,
2013-02-17 16:27:00,22.3,5.7,29.50,NW,304,16.6,22.1,49,0.00,,,0.00,WUHU216HW,2013-02-17 21:27:00,
2013-02-17 16:32:00,22.3,5.7,29.50,West,262,13.5,22.1,49,0.00,,,0.00,WUHU216HW,2013-02-17 21:32:00,
2013-02-17 16:37:00,22.3,5.7,29.51,WSW,248,13.0,17.9,49,0.00,,,0.00,WUHU216HW,2013-02-17 21:37:00,
2013-02-17 16:42:00,22.3,5.2,29.51,WNW,298,17.0,19.0,48,0.00,,,0.00,WUHU216HW,2013-02-17 21:42:00,
2013-02-17 16:47:00,22.3,5.7,29.51,West,270,9.8,19.0,49,0.00,,,0.00,WUHU216HW,2013-02-17 21:47:00,
2013-02-17 16:52:00,22.3,5.7,29.52,NNW,338,17.0,18.8,49,0.00,,,0.00,WUHU216HW,2013-02-17 21:52:00,
2013-02-17 16:57:00,22.1,5.1,29.52,WNW,293,19.7,26.4,48,0.00,,,0.00,WUHU216HW,2013-02-17 21:57:00,
2013-02-17 17:02:00,22.1,5.1,29.52,NW,308,9.8,26.4,48,0.00,,,0.00,WUHU216HW,2013-02-17 22:02:00,
2013-02-17 17:07:00,22.1,5.1,29.53,WNW,293,17.2,23.0,48,0.00,,,0.00,WUHU216HW,2013-02-17 22:07:00,
2013-02-17 17:12:00,22.1,5.1,29.53,WNW,293,14.3,19.7,48,0.00,,,0.00,WUHU216HW,2013-02-17 22:12:00,
2013-02-17 17:17:00,22.3,5.2,29.53,NW,315,14.1,21.0,48,0.00,,,0.00,WUHU216HW,2013-02-17 22:17:00,
2013-02-17 17:22:00,22.3,6.1,29.54,NW,315,22.4,22.4,49,0.00,,,0.00,WUHU216HW,2013-02-17 22:22:00,
2013-02-17 17:27:00,22.3,5.7,29.54,West,270,14.8,22.4,49,0.00,,,0.00,WUHU216HW,2013-02-17 22:27:00,
2013-02-17 17:32:00,22.3,5.7,29.54,NW,315,13.4,25.3,49,0.00,,,0.00,WUHU216HW,2013-02-17 22:32:00,
2013-02-17 17:37:00,22.3,5.2,29.54,West,270,17.9,25.3,48,0.00,,,0.00,WUHU216HW,2013-02-17 22:37:00,
2013-02-17 17:42:00,22.3,5.2,29.55,SW,225,15.9,19.2,48,0.00,,,0.00,WUHU216HW,2013-02-17 22:42:00,
2013-02-17 17:47:00,22.3,5.2,29.55,WNW,293,9.8,19.2,48,0.00,,,0.00,WUHU216HW,2013-02-17 22:47:00,
2013-02-17 17:52:00,22.3,5.2,29.55,WNW,293,10.3,17.2,48,0.00,,,0.00,WUHU216HW,2013-02-17 22:52:00,
2013-02-17 17:57:00,22.3,4.8,29.55,WNW,293,16.1,17.2,47,0.00,,,0.00,WUHU216HW,2013-02-17 22:57:00,
2013-02-17 18:02:00,22.3,5.2,29.55,WNW,296,12.4,17.9,48,0.00,,,0.00,WUHU216HW,2013-02-17 23:02:00,
2013-02-17 18:07:00,22.3,4.8,29.55,West,270,15.2,18.1,47,0.00,,,0.00,WUHU216HW,2013-02-17 23:07:00,
2013-02-17 18:12:00,22.3,4.8,29.55,NW,315,15.0,18.1,47,0.00,,,0.00,WUHU216HW,2013-02-17 23:12:00,
2013-02-17 18:17:00,22.3,4.8,29.56,WNW,300,13.0,22.4,47,0.00,,,0.00,WUHU216HW,2013-02-17 23:17:00,
2013-02-17 18:22:00,22.3,4.8,29.56,NW,313,13.5,22.4,47,0.00,,,0.00,WUHU216HW,2013-02-17 23:22:00,
2013-02-17 18:27:00,22.3,4.8,29.56,NW,311,11.4,21.9,47,0.00,,,0.00,WUHU216HW,2013-02-17 23:27:00,
2013-02-17 18:32:00,22.3,4.8,29.56,WNW,303,11.8,21.9,47,0.00,,,0.00,WUHU216HW,2013-02-17 23:32:00,
2013-02-17 18:37:00,22.3,4.8,29.56,NW,315,12.8,24.6,47,0.00,,,0.00,WUHU216HW,2013-02-17 23:37:00,
2013-02-17 18:42:00,22.3,4.8,29.56,WNW,286,13.7,24.6,47,0.00,,,0.00,WUHU216HW,2013-02-17 23:42:00,
2013-02-17 18:47:00,22.3,5.2,29.56,WNW,300,9.4,19.5,48,0.00,,,0.00,WUHU216HW,2013-02-17 23:47:00,
2013-02-17 18:52:00,22.3,5.2,29.56,WNW,289,8.9,20.1,48,0.00,,,0.00,WUHU216HW,2013-02-17 23:52:00,
2013-02-17 18:57:00,22.3,4.8,29.56,WNW,298,11.9,20.1,47,0.00,,,0.00,WUHU216HW,2013-02-17 23:57:00,
2013-02-17 19:02:00,22.3,5.2,29.57,WNW,289,8.2,16.8,48,0.00,,,0.00,WUHU216HW,2013-02-18 00:02:00,
2013-02-17 19:07:00,22.1,5.1,29.57,NW,308,12.0,19.5,48,0.00,,,0.00,WUHU216HW,2013-02-18 00:07:00,
2013-02-17 19:12:00,22.1,5.1,29.57,WSW,245,7.2,19.5,48,0.00,,,0.00,WUHU216HW,2013-02-18 00:12:00,
2013-02-17 19:17:00,22.1,5.1,29.57,West,270,12.1,13.4,48,0.00,,,0.00,WUHU216HW,2013-02-18 00:17:00,
2013-02-17 19:22:00,22.1,5.5,29.58,West,270,10.0,13.4,49,0.00,,,0.00,WUHU216HW,2013-02-18 00:22:00,
2013-02-17 19:27:00,22.0,5.4,29.57,NW,304,9.9,12.1,49,0.00,,,0.00,WUHU216HW,2013-02-18 00:27:00,
2013-02-17 19:32:00,22.0,5.4,29.57,West,270,12.8,12.8,49,0.00,,,0.00,WUHU216HW,2013-02-18 00:32:00,
2013-02-17 19:37:00,22.0,5.0,29.58,WNW,293,15.2,15.2,48,0.00,,,0.00,WUHU216HW,2013-02-18 00:37:00,
2013-02-17 19:42:00,22.0,5.4,29.58,NW,315,10.5,17.9,49,0.00,,,0.00,WUHU216HW,2013-02-18 00:42:00,
2013-02-17 19:47:00,22.0,5.8,29.58,NW,315,4.5,17.9,49,0.00,,,0.00,WUHU216HW,2013-02-18 00:47:00,
2013-02-17 19:52:00,21.8,5.7,29.58,WNW,293,14.1,14.1,49,0.00,,,0.00,WUHU216HW,2013-02-18 00:52:00,
2013-02-17 19:57:00,21.8,5.7,29.58,NW,315,8.2,14.1,49,0.00,,,0.00,WUHU216HW,2013-02-18 00:57:00,
2013-02-17 20:02:00,21.8,5.7,29.58,NW,315,8.1,12.1,49,0.00,,,0.00,WUHU216HW,2013-02-18 01:02:00,
2013-02-17 20:07:00,21.6,5.5,29.59,WSW,248,11.4,11.4,49,0.00,,,0.00,WUHU216HW,2013-02-18 01:07:00,
2013-02-17 20:12:00,21.6,5.0,29.59,NNW,338,15.0,15.7,49,0.00,,,0.00,WUHU216HW,2013-02-18 01:12:00,
2013-02-17 20:17:00,21.6,4.6,29.59,NW,315,11.9,16.6,48,0.00,,,0.00,WUHU216HW,2013-02-18 01:17:00,
2013-02-17 20:22:00,21.6,5.0,29.59,WNW,303,9.2,16.6,49,0.00,,,0.00,WUHU216HW,2013-02-18 01:22:00,
2013-02-17 20:27:00,21.6,5.9,29.59,West,281,6.9,14.1,50,0.00,,,0.00,WUHU216HW,2013-02-18 01:27:00,
2013-02-17 20:32:00,21.6,5.5,29.59,NW,315,13.6,14.1,49,0.00,,,0.00,WUHU216HW,2013-02-18 01:32:00,
2013-02-17 20:37:00,21.6,5.5,29.60,WNW,293,14.5,19.7,49,0.00,,,0.00,WUHU216HW,2013-02-18 01:37:00,
2013-02-17 20:42:00,21.6,5.0,29.60,WNW,293,8.3,19.7,49,0.00,,,0.00,WUHU216HW,2013-02-18 01:42:00,
2013-02-17 20:47:00,21.4,4.4,29.60,WNW,293,11.9,16.6,48,0.00,,,0.00,WUHU216HW,2013-02-18 01:47:00,
2013-02-17 20:52:00,21.4,4.9,29.60,SW,232,6.0,16.6,49,0.00,,,0.00,WUHU216HW,2013-02-18 01:52:00,
2013-02-17 20:57:00,21.2,4.2,29.61,WNW,293,8.9,15.0,48,0.00,,,0.00,WUHU216HW,2013-02-18 01:57:00,
2013-02-17 21:02:00,21.2,4.2,29.61,West,270,10.1,15.0,48,0.00,,,0.00,WUHU216HW,2013-02-18 02:02:00,
2013-02-17 21:07:00,21.1,4.1,29.61,WNW,293,14.3,15.4,48,0.00,,,0.00,WUHU216HW,2013-02-18 02:07:00,
2013-02-17 21:12:00,20.9,3.9,29.61,WNW,288,7.4,18.3,48,0.00,,,0.00,WUHU216HW,2013-02-18 02:12:00,
2013-02-17 21:17:00,20.7,3.8,29.62,WNW,293,7.3,18.3,48,0.00,,,0.00,WUHU216HW,2013-02-18 02:17:00,
2013-02-17 21:22:00,20.5,3.1,29.63,WNW,303,9.6,23.5,47,0.00,,,0.00,WUHU216HW,2013-02-18 02:22:00,
2013-02-17 21:27:00,20.5,3.1,29.63,West,270,10.3,23.5,47,0.00,,,0.00,WUHU216HW,2013-02-18 02:27:00,
2013-02-17 21:32:00,20.5,3.6,29.64,WNW,293,11.2,12.8,48,0.00,,,0.00,WUHU216HW,2013-02-18 02:32:00,
2013-02-17 21:37:00,20.3,3.4,29.64,WNW,284,7.5,16.8,48,0.00,,,0.00,WUHU216HW,2013-02-18 02:37:00,
2013-02-17 21:42:00,20.2,3.3,29.64,WNW,295,5.6,16.8,48,0.00,,,0.00,WUHU216HW,2013-02-18 02:42:00,
2013-02-17 21:47:00,20.2,3.3,29.64,WNW,293,10.5,10.5,48,0.00,,,0.00,WUHU216HW,2013-02-18 02:47:00,
2013-02-17 21:52:00,20.0,3.1,29.65,NW,316,8.1,19.2,48,0.00,,,0.00,WUHU216HW,2013-02-18 02:52:00,
2013-02-17 21:57:00,19.8,2.9,29.65,SE,135,6.0,19.2,48,0.00,,,0.00,WUHU216HW,2013-02-18 02:57:00,
2013-02-17 22:02:00,19.8,3.4,29.66,NW,315,7.6,11.6,49,0.00,,,0.00,WUHU216HW,2013-02-18 03:02:00,
2013-02-17 22:07:00,19.6,2.8,29.66,NW,315,8.9,15.0,48,0.00,,,0.00,WUHU216HW,2013-02-18 03:07:00,
2013-02-17 22:12:00,19.4,3.0,29.66,NW,315,10.5,15.0,49,0.00,,,0.00,WUHU216HW,2013-02-18 03:12:00,
2013-02-17 22:17:00,19.3,3.3,29.67,West,261,7.1,10.5,49,0.00,,,0.00,WUHU216HW,2013-02-18 03:17:00,
2013-02-17 22:22:00,19.1,3.2,29.67,WNW,291,9.2,14.8,49,0.00,,,0.00,WUHU216HW,2013-02-18 03:22:00,
2013-02-17 22:27:00,19.1,3.2,29.67,WNW,293,6.9,14.8,49,0.00,,,0.00,WUHU216HW,2013-02-18 03:27:00,
2013-02-17 22:32:00,19.1,2.7,29.67,WNW,297,9.2,13.4,49,0.00,,,0.00,WUHU216HW,2013-02-18 03:32:00,
2013-02-17 22:37:00,18.9,2.5,29.68,NW,315,7.8,14.5,49,0.00,,,0.00,WUHU216HW,2013-02-18 03:37:00,
2013-02-17 22:42:00,18.7,2.4,29.68,WNW,290,10.8,17.7,49,0.00,,,0.00,WUHU216HW,2013-02-18 03:42:00,
2013-02-17 22:47:00,18.7,2.4,29.68,NW,304,4.6,17.7,49,0.00,,,0.00,WUHU216HW,2013-02-18 03:47:00,
2013-02-17 22:52:00,18.7,2.8,29.68,WNW,292,6.8,11.0,49,0.00,,,0.00,WUHU216HW,2013-02-18 03:52:00,
2013-02-17 22:57:00,18.5,2.6,29.68,NNW,338,14.5,14.5,49,0.00,,,0.00,WUHU216HW,2013-02-18 03:57:00,
2013-02-17 23:02:00,18.4,2.5,29.69,West,266,10.1,16.3,49,0.00,,,0.00,WUHU216HW,2013-02-18 04:02:00,
2013-02-17 23:07:00,18.4,2.5,29.69,NW,304,6.4,16.3,49,0.00,,,0.00,WUHU216HW,2013-02-18 04:07:00,
2013-02-17 23:12:00,18.4,2.5,29.69,NW,306,9.0,12.3,49,0.00,,,0.00,WUHU216HW,2013-02-18 04:12:00,
2013-02-17 23:17:00,18.4,2.9,29.69,NW,314,4.4,12.3,50,0.00,,,0.00,WUHU216HW,2013-02-18 04:17:00,
2013-02-17 23:22:00,18.4,2.9,29.69,WNW,293,6.9,11.4,50,0.00,,,0.00,WUHU216HW,2013-02-18 04:22:00,
2013-02-17 23:27:00,18.2,2.8,29.69,West,259,5.6,11.2,50,0.00,,,0.00,WUHU216HW,2013-02-18 04:27:00,
2013-02-17 23:32:00,18.2,2.8,29.70,WNW,287,7.0,12.8,50,0.00,,,0.00,WUHU216HW,2013-02-18 04:32:00,
2013-02-17 23:37:00,18.0,2.6,29.70,West,270,7.4,12.8,50,0.00,,,0.00,WUHU216HW,2013-02-18 04:37:00,
2013-02-17 23:42:00,18.0,3.0,29.70,WNW,288,5.7,11.9,51,0.00,,,0.00,WUHU216HW,2013-02-18 04:42:00,
2013-02-17 23:47:00,18.0,3.0,29.70,WNW,293,9.2,12.5,51,0.00,,,0.00,WUHU216HW,2013-02-18 04:47:00,
2013-02-17 23:52:00,17.8,2.8,29.70,West,278,5.2,12.5,51,0.00,,,0.00,WUHU216HW,2013-02-18 04:52:00,
2013-02-17 23:57:00,17.6,2.6,29.70,WNW,293,15.2,15.2,51,0.00,,,0.00,WUHU216HW,2013-02-18 04:57:00,